[[{"header":{"parameterUnit":"m.s-1","parameterCategory":1,"la1":30.2992,"la2":30.254,"lo1":-89.0895,"lo2":-89.0443,"dy":0.0025,"dx":0.0025,"nx":19,"ny":19,"refTime":"2026-04-15T09:00:00:Z","depth":0,"parameterNumber":2,"parameterNumberName":"U-component_of_WINDS"},"data":[0,0,0,0.4884,0.4885,0.4928,0.4928,0.4997,0.4997,0,0,0,0,0,0,0,0,0,0,0,0.4879,0.4879,0.4884,0.4885,0.4928,0.4928,0.4997,0.4997,0,0,0,0,0,0,0,0,0,0,0,0.4878,0.4879,0.488,0.4886,0.4928,0.4928,0.4996,0.496,0,0,0,0,0,0,0,0,0,0,0.4916,0.4917,0.4879,0.488,0.4886,0.4928,0.4928,0.4958,0.4962,0.4983,0,0.5002,0,0.5,0.5003,0.5003,0,0,0,0.4881,0.4914,0.4919,0.488,0.4886,0.4928,0.4907,0.496,0.4965,0.4989,0.5003,0.5005,0.5002,0.5003,0.5004,0.5133,0.5134,0,0,0.4879,0.4891,0.4915,0.4922,0.4914,0.4906,0.4909,0.4963,0.498,0.5003,0.5006,0.5003,0.5004,0.5004,0.5132,0.5133,0,0,0,0.4875,0.4889,0.4892,0.492,0.4926,0.4908,0.4911,0.4977,0.4977,0.5007,0.5004,0.5004,0.5005,0.5132,0.5133,0.5184,0,0,0,0.4873,0.4887,0.4892,0.49,0.4925,0.4952,0.4924,0.4973,0.4979,0.5003,0.5004,0.5006,0.5131,0.5132,0.518,0.5207,0,0,0,0.4874,0.4887,0.4895,0.49,0.4919,0.4951,0.4953,0.4974,0.4977,0.5003,0.5006,0.513,0.5132,0.5177,0.5202,0.5243,0,0,0,0.4878,0.4942,0.4896,0.4967,0.4918,0.4981,0.4953,0.5,0.5028,0.5005,0.5131,0.5133,0.5176,0.5199,0.524,0.5281,0.5299,0,0,0.4966,0.4953,0.4994,0.4954,0.5027,0.4974,0.5055,0.5071,0.5064,0.5111,0.5114,0.5181,0.5201,0.5243,0.5394,0.5408,0,0,0,0.5026,0.5055,0.5071,0.5097,0.5109,0.5121,0.5122,0.5127,0.5166,0.509,0.5207,0.5219,0.5243,0.5262,0.5274,0.5293,0.5142,0.5142,0.5141,0.5169,0.5153,0.5218,0.5207,0.5232,0.5231,0.525,0.5258,0.5237,0.5265,0.5279,0.5372,0.5395,0.5404,0.5425,0.5299,0.5299,0.5299,0.5299,0.5297,0.5335,0.5302,0.5353,0.5336,0.5379,0.538,0.5363,0.5402,0.5361,0.5381,0.5338,0.542,0.5437,0.5303,0.5302,0.5302,0.5302,0.5301,0.5389,0.5405,0.5408,0.5441,0.5469,0.5456,0.5493,0.5477,0.5463,0.5483,0.5495,0.5494,0.5492,0.5489,0.549,0.549,0.549,0.5491,0.5491,0.5484,0.5486,0.5518,0.5533,0.5546,0.5561,0.5559,0.5572,0.5582,0.5568,0.5568,0.5544,0.543,0.5402,0.5496,0.5495,0.5494,0.5494,0.5493,0.562,0.5586,0.5636,0.5649,0.5664,0.5692,0.5669,0.5697,0.5705,0.5724,0.5695,0.5613,0.56,0.5591,0.5567,0.5698,0.5698,0.5698,0.5698,0.5699,0.5689,0.5735,0.5756,0.5775,0.5759,0.5816,0.5814,0.5808,0.5812,0.579,0.5758,0.5748,0.5741,0.5728,0.5706,0.5869,0.5869,0.5869,0.5781,0.5772,0.5824,0.5814,0.5823,0.5833,0.5886,0.5912,0.5898,0.5876,0.5815,0.5808,0.5755,0.5738,0.5717,0.5697,0.5656,0,0]},{"header":{"parameterUnit":"m.s-1","parameterCategory":1,"la1":30.2992,"la2":30.254,"lo1":-89.0895,"lo2":-89.0443,"dy":0.0025,"dx":0.0025,"nx":19,"ny":19,"refTime":"2026-04-15T09:00:00:Z","depth":0,"parameterNumber":3,"parameterNumberName":"V-component_of_WINDS"},"data":[0,0,0,4.6205,4.6207,4.6324,4.6324,4.6476,4.6477,0,0,0,0,0,0,0,0,0,0,0,4.6176,4.6177,4.6204,4.6207,4.6323,4.6324,4.6475,4.6477,0,0,0,0,0,0,0,0,0,0,0,4.6175,4.6177,4.6178,4.6208,4.6323,4.6324,4.6475,4.6385,0,0,0,0,0,0,0,0,0,0,4.6271,4.6252,4.6176,4.6178,4.6209,4.6323,4.6324,4.6381,4.6391,4.6426,0,4.6462,0,4.6472,4.6488,4.6488,0,0,0,4.6202,4.6243,4.627,4.6179,4.621,4.6323,4.627,4.6386,4.6398,4.6439,4.6464,4.6469,4.6475,4.6489,4.649,4.6718,4.6719,0,0,4.6195,4.6199,4.6262,4.6278,4.6264,4.6266,4.6273,4.6393,4.6419,4.6464,4.6473,4.6477,4.649,4.6491,4.6717,4.6718,0,0,0,4.6181,4.6194,4.6218,4.6272,4.6293,4.6269,4.6278,4.6413,4.6421,4.6474,4.6479,4.6491,4.6493,4.6715,4.6717,4.6787,0,0,0,4.6177,4.6186,4.6216,4.6219,4.6291,4.6355,4.6295,4.6413,4.6426,4.6478,4.6491,4.6494,4.6714,4.6717,4.6782,4.6819,0,0,0,4.6166,4.6184,4.6204,4.6218,4.6269,4.6353,4.6368,4.6415,4.6429,4.6489,4.6495,4.6713,4.6716,4.6778,4.6811,4.688,0,0,0,4.6155,4.6262,4.6205,4.6327,4.6268,4.6397,4.6367,4.6462,4.6521,4.6492,4.6714,4.6717,4.6776,4.6807,4.6875,4.6938,4.6965,0,0,4.6291,4.6279,4.635,4.6302,4.6443,4.6379,4.6529,4.6577,4.6578,4.667,4.6676,4.6784,4.6811,4.6879,4.7117,4.7138,0,0,0,4.6394,4.6445,4.6482,4.6541,4.6584,4.6623,4.6649,4.6668,4.6747,4.6628,4.6828,4.6844,4.6883,4.6913,4.6931,4.6965,4.6732,4.6731,4.6731,4.659,4.6589,4.6707,4.672,4.6777,4.6805,4.685,4.6879,4.6858,4.6906,4.6932,4.7077,4.7112,4.7126,4.7161,4.6966,4.6967,4.6967,4.6967,4.679,4.6861,4.6836,4.694,4.6937,4.7024,4.7055,4.7037,4.7115,4.7056,4.7091,4.7026,4.715,4.718,4.6972,4.6971,4.6971,4.697,4.697,4.6917,4.6951,4.6975,4.7061,4.7127,4.7135,4.7213,4.7207,4.72,4.7235,4.7263,4.7261,4.7258,4.7249,4.725,4.725,4.7251,4.7251,4.7251,4.7039,4.7063,4.7132,4.7189,4.7226,4.7275,4.7305,4.7341,4.7378,4.7367,4.7367,4.7341,4.7163,4.7118,4.7259,4.7258,4.7257,4.7256,4.7256,4.7238,4.7193,4.7299,4.7337,4.7404,4.7469,4.7462,4.7535,4.7564,4.7602,4.7569,4.744,4.7424,4.741,4.7372,4.757,4.757,4.757,4.757,4.7345,4.7338,4.7446,4.7507,4.7567,4.7572,4.7688,4.7713,4.7731,4.7748,4.7719,4.7669,4.7654,4.7647,4.7628,4.7592,4.7842,4.7842,4.7843,4.7467,4.7467,4.7569,4.759,4.7642,4.7686,4.7795,4.7864,4.7874,4.7853,4.7761,4.7749,4.7669,4.7643,4.7618,4.7587,4.7523,0,0]}]]